Location: Newark
(44.3681°N, 100.3364°W)
Time: 06:01:56
(UTC+00:00)

Explorer 7 - Pass Details

Date: 26 February 2020
Orbit: 485 x 679 km, 50.3° (Epoch: 07 April)

Event Time Altitude Azimuth Distance (km) Brightness Sun altitude
Rises 19:52:02 0° 282° (WNW) 2,943 10.6 35.4°
Reaches altitude 10° 19:54:34 10° 290° (WNW) 2,004 9.8 35.2°
Maximum altitude 19:58:52 38° 359° (N) 932 7.9 35.0°
Drops below altitude 10° 20:02:55 10° 68° (ENE) 1,888 9.3 34.7°
Sets 20:05:14 0° 77° (ENE) 2,749 10.1 34.6°
